Weather in Petrishchevo

Russia / Kaluga Oblast     54°37′07″N   36°56′43″E
temp.,
°C
wind,
m/s
gust,
m/s
humid.,
%
clouds,
%
prec.,
mm/h
press.,
hPa
HPBL,
m
16 june, wed
wed1600:00+16nnw34923 2.3 101153
03:00+15nnw36950 2.4 1011108
06:00+15nnw37930 0.0 1011205
09:00+19nnw467612 0.0 1012515
12:00+22n566322 0.0 10131521
15:00+22n566829 0.4 10141315
18:00+21nw46690 0.3 1014347
21:00+16n35800 0.3 101762
17 june, thu
thu1700:00+13ne33830 0.0 101939
03:00+11nne33805 0.0 102148
06:00+12nne36825 0.0 1022142
09:00+18ne45665 0.0 1023442
12:00+21ne345428 0.0 10241343
15:00+22ene345351 0.0 10241680
18:00+21ene35690 0.0 1024390
21:00+16ese22820 0.0 102513
18 june, fri
fri1800:00+13e33740 0.0 102726
03:00+12e12810 0.0 102711
06:00+14e22793 0.0 102860
09:00+19e34674 0.0 1028436
12:00+21ese34591 0.0 10281137
15:00+22ese34585 0.0 10271343
18:00+22se23689 0.0 10271293
21:00+17sse22855 0.0 102711
19 june, sat
sat1900:00+14s228872 0.0 102811
03:00+13s22890 0.0 102811
06:00+15s22874 0.0 102973
09:00+20sse23732 0.0 1028472
12:00+22sse33630 0.0 10281058
15:00+23s34603 0.0 10261171
18:00+22s34700 0.0 1026632
21:00+17s22803 0.0 102611
20 june, sun
sun2000:00+15s22895 0.0 102622
03:00+14s22913 0.0 102614
06:00+15sse23870 0.0 102683
09:00+20sse23730 0.0 1026434
12:00+22s34630 0.0 1025962
15:00+24s34600 0.0 10241083
18:00+24sse23700 0.0 1022811
21:00+19sse228116 0.0 102214